Clemson, SC

2:28 AM EDT on May 25, 2017 (GMT -0400)
Oconee County Regional

Weather History for KCEU - October, 2011

Change the Weather History Date:

Friday, October 28, 2011

  Actual Average Record
Temperature  
Mean Temperature 54 °F -  
Max Temperature 64 °F 70 °F 89 °F (1940)
Min Temperature 44 °F 44 °F 24 °F (1957)
Degree Days  
Heating Degree Days 12    
Growing Degree Days 4 (Base 50)    
Moisture  
Dew Point 46 °F    
Average Humidity 74    
Maximum Humidity 87    
Minimum Humidity 62    
Precipitation  
Precipitation 0.18 in - - ()
Sea Level Pressure  
Sea Level Pressure 30.00 in    
Wind  
Wind Speed 7 mph (ENE)    
Max Wind Speed 15 mph    
Max Gust Speed 22 mph    
Visibility 9 miles    
Events Rain    
Averages and records for this station are not official NWS values.
T = Trace of Precipitation, MM = Missing Value Source: NWS Daily Summary

Daily Weather History Graph

Daily Weather History Graph

Search for Another Location

Airport or City:

Trip Planner

Search our weather history database for the weather conditions in past years. The results will help you decide how hot, cold, wet, or windy it might be!

Date:

Astronomy

Oct. 28, 2011 Rise Set
Actual Time 7:48 AM EDT 6:42 PM EDT
Civil Twilight 7:22 AM EDT 7:07 PM EDT
Nautical Twilight 6:52 AM EDT 7:37 PM EDT
Astronomical Twilight 6:23 AM EDT 8:06 PM EDT
Moon 9:55 AM EDT (10/28) 8:11 PM EDT (10/28)
Length of Visible Light 11h 45m
Length of Day
10h 53m
Waxing Crescent, 5% of the Moon is Illuminated
Oct 28
Waxing Crescent
Nov 2
First Quarter
Nov 10
Full
Nov 18
Last Quarter
Nov 25
New

Hourly Weather History & Observations

Time (EDT) Temp. Windchill Dew Point Humidity Pressure Visibility Wind Dir Wind Speed Gust Speed Precip Events Conditions
12:54 AM 62.1 °F - 54.0 °F 75% 29.89 in 10.0 mi WSW 4.6 mph - N/A   Scattered Clouds
1:54 AM 62.1 °F - 55.0 °F 78% 29.90 in 10.0 mi Calm Calm - N/A   Mostly Cloudy
2:54 AM 63.0 °F - 55.0 °F 75% 29.90 in 10.0 mi Calm Calm - N/A   Overcast
3:54 AM 63.0 °F - 55.0 °F 75% 29.91 in 10.0 mi East 3.5 mph - N/A   Overcast
4:54 AM 63.0 °F - 53.1 °F 70% 29.93 in 10.0 mi ENE 3.5 mph - N/A   Overcast
6:54 AM 63.0 °F - 50.0 °F 63% 29.97 in 10.0 mi NE 5.8 mph - N/A   Overcast
7:54 AM 62.1 °F - 48.9 °F 62% 29.98 in 10.0 mi East 8.1 mph 16.1 mph N/A   Overcast
8:54 AM 61.0 °F - 48.9 °F 64% 30.00 in 10.0 mi ENE 8.1 mph - N/A   Overcast
9:54 AM 59.0 °F - 46.0 °F 62% 30.02 in 10.0 mi East 12.7 mph 20.7 mph N/A   Overcast
10:54 AM 57.9 °F - 45.0 °F 62% 30.05 in 10.0 mi ENE 9.2 mph 17.3 mph N/A   Overcast
11:54 AM 57.9 °F - 45.0 °F 62% 30.05 in 10.0 mi ENE 11.5 mph 19.6 mph N/A   Overcast
12:54 PM 57.9 °F - 45.0 °F 62% 30.04 in 10.0 mi ENE 11.5 mph - N/A   Overcast
1:54 PM 57.9 °F - 45.0 °F 62% 30.01 in 10.0 mi ENE 11.5 mph - N/A   Overcast
2:03 PM 57.2 °F - 44.6 °F 63% 30.02 in 10.0 mi ENE 10.4 mph - N/A   Overcast
2:11 PM 57.2 °F - 44.6 °F 63% 30.02 in 10.0 mi NE 15.0 mph - N/A   Overcast
2:18 PM 57.2 °F - 44.6 °F 63% 30.02 in 10.0 mi NE 10.4 mph - N/A   Overcast
2:54 PM 57.0 °F - 45.0 °F 64% 29.99 in 10.0 mi NE 10.4 mph 17.3 mph N/A   Overcast
3:54 PM 55.9 °F - 45.0 °F 67% 29.97 in 10.0 mi NE 11.5 mph - N/A   Overcast
4:54 PM 54.0 °F - 45.0 °F 72% 30.00 in 10.0 mi ENE 9.2 mph - N/A   Overcast
5:54 PM 52.0 °F - 43.0 °F 71% 30.00 in 10.0 mi NE 13.8 mph 21.9 mph N/A   Overcast
6:54 PM 50.0 °F - 42.1 °F 74% 30.01 in 10.0 mi ENE 11.5 mph - 0.00 in Rain Light Rain
7:54 PM 48.0 °F - 43.0 °F 83% 30.01 in 5.0 mi ENE 9.2 mph - 0.08 in Rain Rain
8:03 PM 48.2 °F - 42.8 °F 82% 30.02 in 5.0 mi ENE 9.2 mph - 0.01 in Rain Light Rain
8:42 PM 46.4 °F 42.4 °F 42.8 °F 87% 30.02 in 6.0 mi NE 8.1 mph - 0.03 in Rain Rain
8:54 PM 46.9 °F - 43.0 °F 86% 30.01 in 6.0 mi ENE 10.4 mph 18.4 mph 0.05 in Rain Light Rain
9:37 PM 46.4 °F 41.1 °F 42.8 °F 87% 30.02 in 10.0 mi ENE 11.5 mph - 0.02 in Rain Light Rain
9:46 PM 46.4 °F 41.9 °F 42.8 °F 87% 30.02 in 7.0 mi ENE 9.2 mph - 0.02 in Rain Light Rain
9:54 PM 46.0 °F 41.9 °F 42.1 °F 86% 30.02 in 10.0 mi ENE 8.1 mph 17.3 mph 0.02 in Rain Light Rain
10:17 PM 46.4 °F 42.9 °F 42.8 °F 87% 30.03 in 10.0 mi NE 6.9 mph - 0.01 in Rain Light Rain
10:29 PM 46.4 °F 41.9 °F 42.8 °F 87% 30.02 in 10.0 mi NE 9.2 mph - 0.01 in Rain Light Rain
10:54 PM 46.0 °F 41.4 °F 41.0 °F 83% 30.02 in 7.0 mi NE 9.2 mph - 0.02 in Rain Rain
11:22 PM 44.6 °F 40.7 °F 41.0 °F 87% 30.02 in 10.0 mi East 6.9 mph - 0.01 in Rain Light Rain
11:36 PM 44.6 °F 40.7 °F 41.0 °F 87% 30.02 in 10.0 mi ENE 6.9 mph - 0.01 in Rain Light Rain
11:54 PM 46.0 °F 41.4 °F 41.0 °F 83% 30.01 in 10.0 mi NE 9.2 mph - 0.01 in   Overcast